Flag for USA

Past Weather in 39°59'03"N, 82°50'49"W, USA — Yesterday and Last 2 Weeks

Now
71 °F

Partly sunny.


Feels Like: 70 °F
Forecast: 82 / 64 °F
Wind: 3 mph from Northeast

Location: John Glenn Columbus International Airport

Current Time: Jul 12, 2020 at 8:07:07 pm

Latest Report: Jul 12, 2020 at 6:51 pm


Visibility: 10 mi

Pressure: 29.80 "Hg

Humidity: 84%

Dew Point: 66 °F

Location of 39°59'03"N, 82°50'49"WLocation

Past Weather in 39°59'03"N, 82°50'49"W — Graph

°F

39°59'03"N, 82°50'49"W Temperature Yesterday

Maximum temperature yesterday: 88 °F (at 5:51 pm)
Minimum temperature yesterday: 69 °F (at 5:51 am)
Average temperature yesterday: 78 °F

High & Low Weather Summary for the Past Weeks

 TemperatureHumidityPressure
High96 °F (Jul 7, 3:06 pm)100% (Jul 7, 6:19 pm)30.03 "Hg (Jul 7, 6:19 pm)
Low66 °F (Jul 3, 5:51 am)27% (Jul 3, 2:51 pm)29.72 "Hg (Jul 10, 2:51 pm)
Average80 °F64%29.90 "Hg
* Reported Jun 27 6:51 pm — Jul 12 6:51 pm, 39°59'03"N, 82°50'49"W. Weather by CustomWeather, © 2020

Note: Actual official high and low records may vary slightly from our data, if they occured in-between our weather recording intervals... More about our weather records

39°59'03"N, 82°50'49"W Weather History for the Previous 24 Hours

Scroll right to see more
 ConditionsComfort  
Time TempWeatherWind HumidityBarometerVisibility
6:51 pm
Sun, Jul 12
71 °FPartly sunny.3 mph84%29.80 "Hg10 mi
5:51 pm68 °FThundershowers. Cloudy.7 mph87%29.82 "Hg10 mi
5:20 pm68 °FThundershowers. Mostly cloudy.15 mph84%29.83 "Hg6 mi
4:57 pm76 °FThunderstorms. Mostly cloudy.20 mph64%29.83 "Hg0 mi
3:51 pm80 °FPartly sunny.7 mph58%29.78 "Hg10 mi
2:51 pm79 °FOvercast.5 mph58%29.80 "Hg10 mi
1:51 pm78 °FOvercast.7 mph66%29.81 "Hg10 mi
12:51 pm76 °FOvercast.6 mph72%29.82 "Hg10 mi
11:51 am74 °FScattered clouds.5 mph74%29.81 "Hg10 mi
10:51 am74 °FOvercast.No wind74%29.81 "Hg10 mi
9:51 am72 °FLight rain. Overcast.6 mph81%29.80 "Hg10 mi
8:51 am71 °FMore clouds than sun.3 mph78%29.80 "Hg10 mi
7:51 am70 °FBroken clouds.5 mph81%29.79 "Hg10 mi
6:51 am68 °FBroken clouds.6 mph87%29.79 "Hg10 mi
5:51 am68 °FPassing clouds.8 mph84%29.79 "Hg10 mi
4:51 am68 °FPassing clouds.6 mph87%29.78 "Hg10 mi
3:51 am70 °FPassing clouds.6 mph79%29.77 "Hg10 mi
2:51 am73 °FPassing clouds.7 mph74%29.78 "Hg10 mi
1:51 am74 °FPassing clouds.7 mph71%29.78 "Hg10 mi
12:51 am75 °FPassing clouds.8 mph69%29.78 "Hg10 mi
11:51 pm
Sat, Jul 11
78 °FPartly cloudy.12 mph60%29.80 "Hg10 mi
10:51 pm79 °FPartly cloudy.8 mph56%29.80 "Hg10 mi
9:51 pm79 °FPassing clouds.5 mph54%29.79 "Hg10 mi
8:51 pm79 °FScattered clouds.8 mph52%29.79 "Hg10 mi
Weather by CustomWeather, © 2020

See weather overview